Overview Statistics Trail Chart Weather Telemetry Raw packets
 

This is the latest recevied weather packets stored in our database for station/object KE5QKR. If no packets are shown the sender has not sent any weather packets the latest 10 day(s).

<< 21 22 23 24 25 26 27 >>
Time Temp. Humidity Pressure Rain* Wind** Luminosity Snow
1777827242 22.22° C 43% 1021.1 hPa 0 mm - 838 W/m² -
1777826928 22.22° C 38% 1020.9 hPa 0 mm - 837 W/m² -
1777826626 21.67° C 41% 1021.1 hPa 0 mm - 824 W/m² -
1777826321 21.67° C 38% 1021.1 hPa 0 mm - 828 W/m² -
1777826020 21.67° C 41% 1021 hPa 0 mm - 821 W/m² -
1777825716 21.67° C 42% 1021 hPa 0 mm - 814 W/m² -
1777825414 22.22° C 42% 1021.1 hPa 0 mm - 809 W/m² -
1777825111 22.22° C 43% 1021 hPa 0 mm - 794 W/m² -
1777824807 21.67° C 47% 1021 hPa 0 mm - 791 W/m² -
1777824504 21.67° C 41% 1020.9 hPa 0 mm - 786 W/m² -
1777824200 21.67° C 44% 1021.4 hPa 0 mm - 776 W/m² -
1777823896 21.67° C 47% 1021 hPa 0 mm - 762 W/m² -
1777823594 21.67° C 43% 1020.9 hPa 0 mm - 751 W/m² -
1777823290 21.67° C 44% 1021.1 hPa 0 mm - 741 W/m² -
1777822988 21.67° C 43% 1021.3 hPa 0 mm - 730 W/m² -
1777822686 21.11° C 45% 1021.2 hPa 0 mm - 719 W/m² -
1777822384 21.11° C 49% 1021.1 hPa 0 mm - 705 W/m² -
1777822081 21.67° C 46% 1021 hPa 0 mm - 693 W/m² -
1777821779 21.11° C 46% 1021.1 hPa 0 mm - 681 W/m² -
1777821475 21.67° C 46% 1021.1 hPa 0 mm - 669 W/m² -
1777821173 21.11° C 47% 1021.3 hPa 0 mm - 651 W/m² -
1777820870 22.22° C 44% 1020.8 hPa 0 mm - 641 W/m² -
1777820566 21.11° C 43% 1021.1 hPa 0 mm - 628 W/m² -
1777820263 21.11° C 46% 1021 hPa 0 mm - 615 W/m² -
1777819960 21.11° C 46% 1020.8 hPa 0 mm - 600 W/m² -

* Rain latest hour (hover to see other rain measurements)
** Current wind speed in m/s (hover to see current wind gust speed)